[[{"header":{"parameterUnit":"m.s-1","parameterCategory":1,"la1":30.2991,"la2":30.254,"lo1":-89.0895,"lo2":-89.0444,"dy":0.0017,"dx":0.0017,"nx":28,"ny":28,"refTime":"2023-11-15T09:00:00:Z","depth":0,"parameterNumber":2,"parameterNumberName":"U-component_of_WINDS"},"data":[0,0,0,0,0,0,0,0,0,0,0,0,0,0,0,0,0,0,0,0,0,0,0,0,0,0,0,0,0,0,0,0,0,0,0,0,0,0,0,0,0,0,0,0,0,0,0,0,0,0,0,0,0,0,0,0,0,0,-4.9483,-4.9485,0,-4.975,-4.9753,-4.9756,-4.977,-4.9767,-4.9764,-4.9761,-5.0039,-5.0049,-5.0059,0,0,0,0,0,0,0,0,0,0,0,0,0,-4.8988,-4.8997,-4.9482,-4.9486,-4.9489,-4.9749,-4.9753,-4.9757,-4.9771,-4.9767,-4.9763,-4.976,-5.0035,-5.0048,-5.006,0,0,0,0,0,0,0,0,0,0,0,0,0,-4.9224,-4.9,-4.9482,-4.9527,-4.9534,-4.9749,-4.9753,-4.9758,-4.9772,-4.9767,-4.9762,-4.9758,-5.0031,-5.0046,-5.0062,-5.025,0,0,-5.0109,-5.0115,0,0,0,0,0,0,0,0,-4.921,-4.9242,-4.9517,-4.9525,-4.9532,-4.9722,-4.9681,-4.9923,-4.9773,-4.9682,-4.9761,-4.9756,-4.9937,-4.996,-5.0021,-5.0263,-5.0275,-5.011,-5.012,-5.0126,-5.0131,0,0,0,0,0,0,0,-4.9194,-4.9231,-4.9588,-4.9521,-4.9531,-4.9536,-4.9564,-4.9727,-4.9832,-4.9689,-4.9691,-4.9722,-4.9941,-5.0006,-5.0027,-5.0279,-5.011,-5.0123,-5.0133,-5.0139,-5.0692,-5.0698,0,0,0,0,0,0,-4.9168,-4.9217,-4.958,-4.9596,-4.9357,-4.9548,-4.958,-4.9666,-4.9831,-4.9851,-4.9726,-4.9722,-4.9982,-5.0009,-5.0037,-5.0271,-5.0126,-5.014,-5.0149,-5.0687,-5.0694,-5.07,0,0,0,0,0,0,-4.9158,-4.9201,-4.9569,-4.9407,-4.9454,-4.9562,-4.9658,-4.9674,-4.9739,-4.9858,-4.9878,-4.9773,-4.9979,-5.0016,-5.0197,-5.0281,-5.0147,-5.0161,-5.0681,-5.0689,-5.0697,-5.0738,0,0,0,0,0,0,-4.9143,-4.9197,-4.9268,-4.9409,-4.9463,-4.9723,-4.9663,-4.9682,-4.9765,-4.9762,-4.9907,-4.9927,-4.9978,-5.0174,-5.0213,-5.03,-5.0174,-5.0674,-5.0684,-5.0694,-5.073,-5.0747,-5.0761,0,0,0,0,0,-4.9126,-4.9269,-4.9272,-4.9315,-4.9554,-4.9728,-4.9759,-4.9814,-4.9771,-4.9845,-4.9922,-4.9923,-5.0265,-5.0193,-5.0236,-5.0329,-5.0669,-5.0681,-5.0693,-5.0723,-5.0743,-5.0761,0,0,0,0,0,0,-4.9137,-4.9289,-4.9293,-4.9486,-4.9594,-4.973,-4.9825,-4.9834,-4.9957,-4.995,-5.0014,-5.0047,-5.0227,-5.0296,-5.0213,-5.0521,-5.0462,-5.0484,-5.047,-5.0491,-5.0506,-5.0486,-5.0186,0,0,0,0,0,-4.9161,-4.9288,-4.9415,-4.9573,-4.9627,-4.9716,-4.9794,-4.9827,-4.9942,-4.9988,-5.0079,-5.0191,-5.0325,-5.0411,-5.054,-5.0739,-5.0773,-5.0825,-5.084,-5.0852,-5.0871,-5.0984,-5.101,-5.074,-5.074,-5.0739,0,0,-4.9214,-4.9313,-4.9389,-4.9578,-4.9665,-4.9797,-4.9755,-4.9896,-4.9995,-5.001,-5.0188,-5.0258,-5.0388,-5.058,-5.0669,-5.0643,-5.0953,-5.0868,-5.0877,-5.0889,-5.1,-5.1025,-5.1048,-5.0748,-5.0747,-5.0745,0,0,-4.9378,-4.9465,-4.9607,-4.9696,-4.9829,-4.9888,-4.9922,-5.0057,-5.0104,-5.0283,-5.0298,-5.0418,-5.0645,-5.0738,-5.0815,-5.1015,-5.1021,-5.1056,-5.1138,-5.1248,-5.1269,-5.1288,-5.1362,-5.1388,-5.1073,-5.1073,-5.1074,0,-4.9428,-4.9625,-4.9679,-4.9821,-4.9905,-4.9923,-5.007,-5.0153,-5.0322,-5.038,-5.0348,-5.0635,-5.0724,-5.0939,-5.0988,-5.1049,-5.1092,-5.104,-5.1261,-5.1281,-5.13,-5.1372,-5.1399,-5.1077,-5.1077,-5.1076,-5.1076,0,-4.9681,-4.9818,-4.9917,-5.0079,-5.0174,-5.0317,-5.0394,-5.0484,-5.0509,-5.0572,-5.0755,-5.0862,-5.1014,-5.1067,-5.1093,-5.1288,-5.1268,-5.1248,-5.119,-5.1328,-5.1397,-5.1424,-5.1082,-5.1081,-5.108,-5.1079,0,0,-4.986,-5.005,-5.0086,-5.0161,-5.0309,-5.0417,-5.0562,-5.071,-5.0787,-5.0902,-5.1027,-5.122,-5.1203,-5.129,-5.1327,-5.1423,-5.1578,-5.1392,-5.1396,-5.1425,-5.1802,-5.1817,-5.1848,-5.1582,-5.1587,-5.1592,-5.1792,0,-5.0042,-5.0299,-5.0352,-5.0575,-5.0704,-5.0724,-5.0851,-5.0957,-5.1019,-5.1139,-5.1209,-5.1345,-5.1311,-5.1364,-5.146,-5.1539,-5.1655,-5.1525,-5.1701,-5.1707,-5.167,-5.1883,-5.19,-5.2083,-5.1818,-5.1823,-5.1826,0,-5.0288,-5.041,-5.0646,-5.0779,-5.0835,-5.0948,-5.1089,-5.1202,-5.1323,-5.1363,-5.1461,-5.1487,-5.1641,-5.1574,-5.1788,-5.1698,-5.1774,-5.1823,-5.1832,-5.1852,-5.1776,-5.1911,-5.2143,-5.2171,-5.1868,-5.1865,-5.1862,0,-5.0398,-5.0621,-5.0791,-5.0854,-5.1013,-5.1092,-5.1163,-5.1279,-5.1365,-5.1489,-5.1546,-5.1686,-5.1763,-5.1872,-5.1937,-5.1882,-5.2147,-5.2085,-5.2186,-5.2184,-5.2242,-5.2238,-5.2491,-5.2287,-5.2286,-5.2286,-5.2285,0,-5.0597,-5.0741,-5.0843,-5.0948,-5.1111,-5.1171,-5.1331,-5.1401,-5.1505,-5.1625,-5.1651,-5.1764,-5.1841,-5.1966,-5.2017,-5.2188,-5.2222,-5.226,-5.2273,-5.2259,-5.2255,-5.2311,-5.2301,-5.2293,-5.2292,-5.229,-5.2289,0,-5.0748,-5.0821,-5.1009,-5.1144,-5.1182,-5.1296,-5.1413,-5.1517,-5.1579,-5.1732,-5.1771,-5.1871,-5.2019,-5.2094,-5.2278,-5.2313,-5.2506,-5.251,-5.2465,-5.247,-5.2568,-5.2558,-5.2868,-5.2913,-5.2676,-5.2678,-5.268,0,-5.0871,-5.0982,-5.1129,-5.1212,-5.1283,-5.1415,-5.1503,-5.1568,-5.1659,-5.1806,-5.1893,-5.2042,-5.2165,-5.2401,-5.2491,-5.2633,-5.2641,-5.274,-5.2663,-5.2647,-5.2646,-5.2639,-5.2652,-5.2754,-5.2756,-5.2758,-5.276,0,-5.1082,-5.1113,-5.1239,-5.1378,-5.1482,-5.1595,-5.1706,-5.1773,-5.1855,-5.1957,-5.2108,-5.2203,-5.2392,-5.254,-5.2689,-5.2763,-5.2777,-5.2783,-5.2814,-5.2803,-5.2773,-5.2793,-5.2505,-5.2776,-5.2774,-5.2773,-5.2772,-5.2772,-5.1225,-5.1325,-5.1445,-5.1585,-5.1675,-5.1779,-5.1884,-5.196,-5.2087,-5.2245,-5.2275,-5.2436,-5.2557,-5.2758,-5.2837,-5.2965,-5.2944,-5.2989,-5.3001,-5.3011,-5.3017,-5.2751,-5.2992,-5.2992,-5.2991,-5.2991,-5.2991,0,-5.1439,-5.1517,-5.1645,-5.18,-5.1911,-5.1912,-5.2036,-5.2128,-5.2269,-5.238,-5.25,-5.2675,-5.282,-5.2922,-5.3069,-5.3153,-5.3163,-5.3189,-5.3185,-5.3203,-5.3026,-5.2985,-5.3179,-5.3179,-5.3179,-5.3179,-5.3179,-5.3179,-5.1564,-5.1735,-5.1781,-5.1998,-5.2076,-5.2233,-5.2304,-5.2401,-5.249,-5.2684,-5.2804,-5.2868,-5.2977,-5.3132,-5.3266,-5.3292,-5.3347,-5.3374,-5.3401,-5.3234,-5.3215,-5.3196,-5.3158,-5.3384,-5.3385,-5.3567,-5.3568,-5.357]},{"header":{"parameterUnit":"m.s-1","parameterCategory":1,"la1":30.2991,"la2":30.254,"lo1":-89.0895,"lo2":-89.0444,"dy":0.0017,"dx":0.0017,"nx":28,"ny":28,"refTime":"2023-11-15T09:00:00:Z","depth":0,"parameterNumber":3,"parameterNumberName":"V-component_of_WINDS"},"data":[0,0,0,0,0,0,0,0,0,0,0,0,0,0,0,0,0,0,0,0,0,0,0,0,0,0,0,0,0,0,0,0,0,0,0,0,0,0,0,0,0,0,0,0,0,0,0,0,0,0,0,0,0,0,0,0,0,0,-8.4011,-8.4011,0,-8.3998,-8.3997,-8.3997,-8.386,-8.3857,-8.3853,-8.385,-8.3837,-8.3839,-8.3842,0,0,0,0,0,0,0,0,0,0,0,0,0,-8.3918,-8.392,-8.4011,-8.4011,-8.4011,-8.3998,-8.3997,-8.3997,-8.3861,-8.3856,-8.3852,-8.3848,-8.3836,-8.3839,-8.3842,0,0,0,0,0,0,0,0,0,0,0,0,0,-8.3937,-8.3921,-8.4011,-8.3941,-8.3934,-8.3998,-8.3997,-8.3997,-8.3862,-8.3856,-8.3851,-8.3846,-8.3835,-8.3839,-8.3843,-8.3972,0,0,-8.3856,-8.3858,0,0,0,0,0,0,0,0,-8.3936,-8.394,-8.3951,-8.3946,-8.3939,-8.3925,-8.3959,-8.3989,-8.3863,-8.3889,-8.385,-8.3844,-8.387,-8.3871,-8.388,-8.3972,-8.3971,-8.3856,-8.3859,-8.3861,-8.3862,0,0,0,0,0,0,0,-8.3935,-8.394,-8.4005,-8.3952,-8.3944,-8.391,-8.3907,-8.3964,-8.3909,-8.3887,-8.3877,-8.3877,-8.3866,-8.3876,-8.3879,-8.3971,-8.3856,-8.386,-8.3863,-8.3864,-8.4168,-8.4173,0,0,0,0,0,0,-8.3943,-8.394,-8.4006,-8.4005,-8.3925,-8.3916,-8.3912,-8.3935,-8.3908,-8.3899,-8.3881,-8.387,-8.3871,-8.3874,-8.3878,-8.4027,-8.3861,-8.3865,-8.3867,-8.4162,-8.4169,-8.4175,0,0,0,0,0,0,-8.3942,-8.395,-8.4006,-8.397,-8.3974,-8.3923,-8.3949,-8.3937,-8.3947,-8.3904,-8.3893,-8.3902,-8.3868,-8.3872,-8.395,-8.4025,-8.3867,-8.387,-8.4156,-8.4164,-8.4172,-8.4328,0,0,0,0,0,0,-8.394,-8.3951,-8.3999,-8.3972,-8.3977,-8.4079,-8.3954,-8.3941,-8.3955,-8.3941,-8.3921,-8.3912,-8.3864,-8.3944,-8.3954,-8.4028,-8.3874,-8.4149,-8.4159,-8.4169,-8.4316,-8.434,-8.4361,0,0,0,0,0,-8.3937,-8.4044,-8.4003,-8.4011,-8.4037,-8.4084,-8.4087,-8.4029,-8.3962,-8.401,-8.3982,-8.3913,-8.4015,-8.3953,-8.3963,-8.404,-8.4144,-8.4156,-8.4168,-8.4305,-8.4335,-8.4361,0,0,0,0,0,0,-8.4082,-8.4039,-8.3993,-8.4094,-8.4094,-8.4061,-8.412,-8.4062,-8.4081,-8.4067,-8.3994,-8.399,-8.408,-8.4067,-8.3999,-8.4163,-8.4067,-8.4082,-8.4168,-8.4196,-8.4219,-8.422,-8.3877,0,0,0,0,0,-8.4125,-8.4167,-8.4128,-8.4221,-8.4223,-8.4172,-8.419,-8.4146,-8.4142,-8.4141,-8.4119,-8.4118,-8.415,-8.4172,-8.4199,-8.4313,-8.4307,-8.437,-8.4393,-8.4412,-8.4426,-8.4485,-8.4513,-8.4215,-8.4215,-8.4215,0,0,-8.4216,-8.4198,-8.4229,-8.425,-8.4244,-8.4289,-8.4173,-8.4225,-8.4258,-8.4149,-8.4221,-8.4205,-8.4199,-8.4296,-8.4338,-8.4288,-8.4507,-8.4428,-8.4444,-8.4447,-8.4501,-8.4529,-8.4555,-8.4224,-8.4222,-8.4221,0,0,-8.4405,-8.4395,-8.4472,-8.4469,-8.4461,-8.4427,-8.4445,-8.4421,-8.4406,-8.4477,-8.4397,-8.4434,-8.4491,-8.449,-8.4497,-8.4685,-8.4622,-8.4696,-8.4816,-8.4874,-8.4898,-8.4918,-8.4985,-8.501,-8.471,-8.4711,-8.4711,0,-8.4519,-8.4583,-8.4519,-8.4576,-8.4588,-8.4492,-8.4569,-8.4568,-8.4571,-8.4581,-8.4526,-8.4594,-8.4584,-8.4679,-8.4725,-8.4734,-8.4753,-8.4698,-8.49,-8.4919,-8.4938,-8.5001,-8.5026,-8.4719,-8.4718,-8.4718,-8.4717,0,-8.4723,-8.4769,-8.4832,-8.4836,-8.4855,-8.4922,-8.4868,-8.4894,-8.4848,-8.4819,-8.4893,-8.4877,-8.4899,-8.4918,-8.4874,-8.5007,-8.4977,-8.4912,-8.4814,-8.4976,-8.5034,-8.5058,-8.4732,-8.4729,-8.4726,-8.4724,0,0,-8.5003,-8.497,-8.4995,-8.4995,-8.498,-8.5014,-8.5077,-8.5098,-8.5123,-8.5127,-8.5178,-8.5228,-8.5168,-8.5176,-8.5131,-8.5182,-8.5333,-8.511,-8.5109,-8.5152,-8.5479,-8.5528,-8.5557,-8.5291,-8.5295,-8.5299,-8.5479,0,-8.5184,-8.5289,-8.5233,-8.5346,-8.5387,-8.5297,-8.5351,-8.5348,-8.5323,-8.5355,-8.5326,-8.5363,-8.5281,-8.5285,-8.5332,-8.5305,-8.5397,-8.5291,-8.5337,-8.534,-8.5342,-8.5587,-8.5639,-8.581,-8.5502,-8.5505,-8.5508,0,-8.5409,-8.5424,-8.5541,-8.5518,-8.5533,-8.5583,-8.5598,-8.5629,-8.5624,-8.5602,-8.5612,-8.5554,-8.5614,-8.5517,-8.5599,-8.5528,-8.5544,-8.5533,-8.5538,-8.554,-8.5434,-8.5596,-8.5864,-8.589,-8.5543,-8.554,-8.5538,0,-8.5602,-8.565,-8.5726,-8.573,-8.5705,-8.5742,-8.5733,-8.5723,-8.5739,-8.5752,-8.5762,-8.5782,-8.5794,-8.5811,-8.576,-8.5694,-8.5849,-8.5748,-8.5832,-8.5834,-8.5869,-8.5867,-8.6143,-8.588,-8.5879,-8.5879,-8.5878,0,-8.581,-8.5885,-8.5812,-8.5859,-8.5941,-8.5875,-8.5958,-8.5939,-8.5931,-8.5973,-8.5895,-8.5936,-8.5867,-8.5901,-8.5862,-8.5935,-8.5941,-8.5925,-8.5914,-8.5932,-8.5934,-8.5941,-8.5928,-8.5885,-8.5884,-8.5883,-8.5882,0,-8.6038,-8.5992,-8.6069,-8.6039,-8.6034,-8.6095,-8.6069,-8.6111,-8.6081,-8.6135,-8.6144,-8.6096,-8.6132,-8.6083,-8.6114,-8.6088,-8.6189,-8.616,-8.6191,-8.6183,-8.627,-8.6262,-8.6559,-8.6595,-8.6309,-8.6312,-8.6315,0,-8.6174,-8.623,-8.6206,-8.6228,-8.6224,-8.6261,-8.6277,-8.6215,-8.6235,-8.6233,-8.6276,-8.6305,-8.6326,-8.6388,-8.6356,-8.638,-8.635,-8.6453,-8.6353,-8.637,-8.6352,-8.6349,-8.6354,-8.6473,-8.6477,-8.6479,-8.6482,0,-8.6421,-8.6395,-8.6421,-8.644,-8.6461,-8.6473,-8.6479,-8.6502,-8.6437,-8.6463,-8.6499,-8.6515,-8.6547,-8.6577,-8.6592,-8.6583,-8.6523,-8.6513,-8.6534,-8.6553,-8.6569,-8.6562,-8.6247,-8.6507,-8.6504,-8.6502,-8.6501,-8.65,-8.6607,-8.6652,-8.6642,-8.6674,-8.6672,-8.6679,-8.6717,-8.6691,-8.672,-8.6741,-8.6702,-8.6748,-8.6741,-8.6755,-8.6753,-8.6788,-8.6743,-8.6773,-8.6781,-8.6789,-8.6803,-8.6564,-8.679,-8.6789,-8.6789,-8.6788,-8.6787,0,-8.6849,-8.6838,-8.6868,-8.6879,-8.6904,-8.6844,-8.6847,-8.6872,-8.6913,-8.6911,-8.6933,-8.6974,-8.7003,-8.6974,-8.6998,-8.7031,-8.7004,-8.704,-8.7036,-8.7035,-8.6841,-8.6821,-8.7061,-8.7061,-8.7061,-8.7061,-8.7061,-8.7061,-8.6978,-8.7051,-8.7025,-8.7096,-8.7084,-8.7128,-8.7135,-8.7142,-8.714,-8.7189,-8.7213,-8.7193,-8.7181,-8.7203,-8.7227,-8.7217,-8.723,-8.7276,-8.7257,-8.7076,-8.7049,-8.7023,-8.7004,-8.7279,-8.7279,-8.7448,-8.7449,-8.745]}]]